User: anonymous   Login
Location: Mentone
(34.5413°N, 85.5351°W)
Time: 12:13:05
(UTC-05:00)
Language:

Okean O Rocket - Orbit

View from above orbital plane
View from above orbital plane
View from above satellite
View from above satellite

Ground track
Ground track

The orbit data is extracted from the following two-line orbital elements,

1 25861U 99039B   15214.47361374  .00000156  00000-0  28706-4 0  9999
2 25861 098.0050 174.4200 0016841 125.5065 345.9447 14.78168052864611
Epoch (UTC): 02 August 2015 11:22:00
Eccentricity: 0.0016841
inclination: 98.0050°
perigee height: 623 km
apogee height: 647 km
right ascension of ascending node: 174.4200°
argument of perigee: 125.5065°
revolutions per day: 14.78168052
mean anomaly at epoch: 345.9447°
orbit number at epoch: 86461

The dashed part of the orbit path shows where the satellite is in the earth's shadow,  

DLR